Time,TemperatureF,DewpointF,PressureIn,WindDirection,WindDirectionDegrees,WindSpeedMPH,WindSpeedGustMPH,Humidity,HourlyPrecipIn,Conditions,Clouds,dailyrainin,SoftwareType,DateUTC
2013-05-03 00:02:00,53.6,51.6,29.44,NNW,338,0.0,0.0,93,0.00,RA,SCT,0.00,WeatherDisplay:10.37,2013-05-03 08:02:00,
2013-05-03 00:07:00,54.0,52.0,29.44,NNE,22,4.6,0.0,93,0.00,RA,SCT,0.00,WeatherDisplay:10.37,2013-05-03 08:07:00,
2013-05-03 00:12:00,54.3,52.3,29.44,NNE,22,0.0,0.0,93,0.00,CLR,SCT,0.00,WeatherDisplay:10.37,2013-05-03 08:12:00,
2013-05-03 00:17:00,54.5,52.5,29.44,NNE,22,4.6,4.6,93,0.00,CLR,SCT,0.00,WeatherDisplay:10.37,2013-05-03 08:17:00,
2013-05-03 00:22:00,54.5,52.5,29.44,NNE,22,0.0,0.0,93,0.00,CLR,SCT,0.00,WeatherDisplay:10.37,2013-05-03 08:22:00,
2013-05-03 00:27:00,54.9,52.9,29.44,NNE,22,0.0,0.0,93,0.00,CLR,SCT,0.00,WeatherDisplay:10.37,2013-05-03 08:27:00,
2013-05-03 00:32:00,55.0,53.1,29.44,NNE,22,2.3,0.0,93,0.00,CLR,SCT,0.00,WeatherDisplay:10.37,2013-05-03 08:32:00,
2013-05-03 00:37:00,55.2,53.2,29.44,NNE,22,0.0,0.0,93,0.00,CLR,SCT,0.00,WeatherDisplay:10.37,2013-05-03 08:37:00,
2013-05-03 00:42:00,55.4,53.4,29.44,NNE,22,0.0,0.0,93,0.00,CLR,SCT,0.00,WeatherDisplay:10.37,2013-05-03 08:42:00,
2013-05-03 00:47:00,55.6,53.6,29.44,NNE,22,0.0,0.0,93,0.00,CLR,SCT,0.00,WeatherDisplay:10.37,2013-05-03 08:47:00,
2013-05-03 00:52:00,55.6,53.6,29.44,NNE,22,0.0,0.0,93,0.00,CLR,SCT,0.00,WeatherDisplay:10.37,2013-05-03 08:52:00,
2013-05-03 00:57:00,55.8,53.8,29.44,NNE,22,0.0,0.0,93,0.00,CLR,SCT,0.00,WeatherDisplay:10.37,2013-05-03 08:57:00,
2013-05-03 01:02:00,55.9,53.9,29.44,NNE,22,0.0,0.0,93,0.00,CLR,SCT,0.00,WeatherDisplay:10.37,2013-05-03 09:02:00,
2013-05-03 01:07:00,55.9,53.9,29.44,NNE,22,0.0,0.0,93,0.00,CLR,SCT,0.00,WeatherDisplay:10.37,2013-05-03 09:07:00,
2013-05-03 01:12:00,56.1,54.1,29.44,NNE,22,0.0,0.0,93,0.00,CLR,SCT,0.00,WeatherDisplay:10.37,2013-05-03 09:12:00,
2013-05-03 01:17:00,56.3,54.3,29.44,NNE,22,0.0,0.0,93,0.00,CLR,SCT,0.00,WeatherDisplay:10.37,2013-05-03 09:17:00,
2013-05-03 01:22:00,56.3,54.3,29.44,NNE,22,0.0,0.0,93,0.00,CLR,SCT,0.00,WeatherDisplay:10.37,2013-05-03 09:22:00,
2013-05-03 01:27:00,56.5,54.5,29.44,NNE,22,0.0,0.0,93,0.00,CLR,SCT,0.00,WeatherDisplay:10.37,2013-05-03 09:27:00,
2013-05-03 01:32:00,56.7,54.7,29.44,NNE,22,0.0,0.0,93,0.00,CLR,SCT,0.00,WeatherDisplay:10.37,2013-05-03 09:32:00,
2013-05-03 01:37:00,56.8,54.8,29.44,NNE,22,0.0,0.0,93,0.00,CLR,SCT,0.00,WeatherDisplay:10.37,2013-05-03 09:37:00,
2013-05-03 01:42:00,56.8,54.8,29.44,NNE,22,0.0,0.0,93,0.00,CLR,SCT,0.00,WeatherDisplay:10.37,2013-05-03 09:42:00,
2013-05-03 01:47:00,57.2,55.2,29.44,NNE,22,0.0,0.0,93,0.00,CLR,SCT,0.00,WeatherDisplay:10.37,2013-05-03 09:47:00,
2013-05-03 01:52:00,57.2,55.2,29.44,NNE,22,0.0,0.0,93,0.00,CLR,SCT,0.00,WeatherDisplay:10.37,2013-05-03 09:52:00,
2013-05-03 01:57:00,57.6,55.6,29.44,NNE,22,4.6,4.6,93,0.00,CLR,SCT,0.00,WeatherDisplay:10.37,2013-05-03 09:57:00,
2013-05-03 02:02:00,57.7,55.7,29.44,NNE,22,2.6,0.0,93,0.00,CLR,SCT,0.00,WeatherDisplay:10.37,2013-05-03 10:02:00,
2013-05-03 02:07:00,57.9,55.9,29.44,NNE,22,0.0,0.0,93,0.00,CLR,SCT,0.00,WeatherDisplay:10.37,2013-05-03 10:07:00,
2013-05-03 02:12:00,57.9,55.9,29.44,NNE,22,0.0,0.0,93,0.00,CLR,SCT,0.00,WeatherDisplay:10.37,2013-05-03 10:12:00,
2013-05-03 02:17:00,58.1,56.1,29.44,NE,45,0.0,0.0,93,0.00,CLR,SCT,0.00,WeatherDisplay:10.37,2013-05-03 10:17:00,
2013-05-03 02:22:00,58.1,56.1,29.44,NE,45,0.0,0.0,93,0.00,CLR,SCT,0.00,WeatherDisplay:10.37,2013-05-03 10:22:00,
2013-05-03 02:27:00,58.3,56.3,29.44,NE,45,0.0,0.0,93,0.00,CLR,SCT,0.00,WeatherDisplay:10.37,2013-05-03 10:27:00,
2013-05-03 02:32:00,58.5,56.4,29.44,NE,45,0.0,0.0,93,0.00,CLR,SCT,0.00,WeatherDisplay:10.37,2013-05-03 10:32:00,
2013-05-03 02:37:00,58.5,56.4,29.44,NE,45,0.0,0.0,93,0.00,CLR,SCT,0.00,WeatherDisplay:10.37,2013-05-03 10:37:00,
2013-05-03 02:42:00,58.6,56.6,29.44,NE,45,0.0,0.0,93,0.00,CLR,SCT,0.00,WeatherDisplay:10.37,2013-05-03 10:42:00,
2013-05-03 02:47:00,58.8,56.8,29.44,NE,45,0.0,0.0,93,0.00,CLR,SCT,0.00,WeatherDisplay:10.37,2013-05-03 10:47:00,
2013-05-03 02:52:00,59.0,56.7,29.44,NE,45,0.0,0.0,92,0.00,CLR,SCT,0.00,WeatherDisplay:10.37,2013-05-03 10:52:00,
2013-05-03 02:57:00,59.2,56.9,29.44,NE,45,0.0,0.0,92,0.00,CLR,SCT,0.00,WeatherDisplay:10.37,2013-05-03 10:57:00,
2013-05-03 03:02:00,59.4,57.0,29.44,NE,45,0.0,0.0,92,0.00,CLR,SCT,0.00,WeatherDisplay:10.37,2013-05-03 11:02:00,
2013-05-03 03:07:00,59.5,57.2,29.44,NE,45,0.0,0.0,92,0.00,CLR,SCT,0.00,WeatherDisplay:10.37,2013-05-03 11:07:00,
2013-05-03 03:12:00,59.7,57.4,29.44,NE,45,0.0,0.0,92,0.00,CLR,SCT,0.00,WeatherDisplay:10.37,2013-05-03 11:12:00,
2013-05-03 03:17:00,59.9,57.6,29.44,NE,45,0.0,0.0,92,0.00,CLR,SCT,0.00,WeatherDisplay:10.37,2013-05-03 11:17:00,
2013-05-03 03:22:00,59.9,57.6,29.41,NE,45,0.0,0.0,92,0.00,CLR,SCT,0.00,WeatherDisplay:10.37,2013-05-03 11:22:00,
2013-05-03 03:27:00,59.9,57.6,29.41,NE,45,0.0,0.0,92,0.00,CLR,SCT,0.00,WeatherDisplay:10.37,2013-05-03 11:27:00,
2013-05-03 03:32:00,60.1,57.7,29.41,NE,45,0.0,0.0,92,0.00,CLR,SCT,0.00,WeatherDisplay:10.37,2013-05-03 11:32:00,
2013-05-03 03:37:00,60.1,57.7,29.41,NE,45,0.0,0.0,92,0.00,CLR,SCT,0.00,WeatherDisplay:10.37,2013-05-03 11:37:00,
2013-05-03 03:42:00,60.1,57.7,29.41,NE,45,0.0,0.0,92,0.00,CLR,SCT,0.00,WeatherDisplay:10.37,2013-05-03 11:42:00,
2013-05-03 03:47:00,60.3,57.9,29.41,NE,45,0.0,0.0,92,0.00,CLR,SCT,0.00,WeatherDisplay:10.37,2013-05-03 11:47:00,
2013-05-03 03:52:00,60.6,58.3,29.41,NE,45,0.0,0.0,92,0.00,CLR,SCT,0.00,WeatherDisplay:10.37,2013-05-03 11:52:00,
2013-05-03 03:57:00,60.6,58.3,29.41,NE,45,0.0,0.0,92,0.00,CLR,SCT,0.00,WeatherDisplay:10.37,2013-05-03 11:57:00,
2013-05-03 04:03:00,60.8,58.5,29.41,NE,45,0.0,0.0,92,0.00,CLR,SCT,0.00,WeatherDisplay:10.37,2013-05-03 12:03:00,
2013-05-03 04:08:00,61.0,58.6,29.44,NE,45,0.0,0.0,92,0.00,CLR,SCT,0.00,WeatherDisplay:10.37,2013-05-03 12:08:00,
2013-05-03 04:13:00,61.2,58.8,29.44,NNE,22,4.6,4.6,92,0.00,CLR,SCT,0.00,WeatherDisplay:10.37,2013-05-03 12:13:00,
2013-05-03 04:18:00,61.2,58.8,29.44,NNE,22,0.0,0.0,92,0.00,CLR,SCT,0.00,WeatherDisplay:10.37,2013-05-03 12:18:00,
2013-05-03 04:23:00,61.3,59.0,29.41,NNE,22,0.0,0.0,92,0.00,CLR,SCT,0.00,WeatherDisplay:10.37,2013-05-03 12:23:00,
2013-05-03 04:28:00,61.7,59.4,29.41,NNE,22,0.0,0.0,92,0.00,CLR,SCT,0.00,WeatherDisplay:10.37,2013-05-03 12:28:00,
2013-05-03 04:33:00,61.9,59.5,29.41,NNE,22,0.0,0.0,92,0.00,CLR,SCT,0.00,WeatherDisplay:10.37,2013-05-03 12:33:00,
2013-05-03 04:38:00,61.9,59.5,29.41,NNE,22,0.0,0.0,92,0.00,CLR,SCT,0.00,WeatherDisplay:10.37,2013-05-03 12:38:00,
2013-05-03 04:43:00,62.1,59.7,29.41,NNE,22,0.0,0.0,92,0.00,CLR,SCT,0.00,WeatherDisplay:10.37,2013-05-03 12:43:00,
2013-05-03 04:48:00,62.2,59.9,29.41,NNE,22,0.0,0.0,92,0.00,CLR,SCT,0.00,WeatherDisplay:10.37,2013-05-03 12:48:00,
2013-05-03 04:53:00,62.6,60.2,29.41,NNE,22,0.0,0.0,92,0.00,CLR,SCT,0.00,WeatherDisplay:10.37,2013-05-03 12:53:00,
2013-05-03 04:58:00,62.6,60.2,29.41,NNE,22,0.0,0.0,92,0.00,CLR,SCT,0.00,WeatherDisplay:10.37,2013-05-03 12:58:00,
2013-05-03 05:03:00,62.8,60.4,29.41,NNE,22,0.0,0.0,92,0.00,CLR,SCT,0.00,WeatherDisplay:10.37,2013-05-03 13:03:00,
2013-05-03 05:08:00,63.1,60.8,29.41,NNE,22,0.0,0.0,92,0.00,CLR,SCT,0.00,WeatherDisplay:10.37,2013-05-03 13:08:00,
2013-05-03 05:13:00,63.1,60.8,29.41,NNE,22,0.0,0.0,92,0.00,CLR,SCT,0.00,WeatherDisplay:10.37,2013-05-03 13:13:00,
2013-05-03 05:18:00,63.5,61.1,29.41,NNE,22,0.0,0.0,92,0.00,CLR,SCT,0.00,WeatherDisplay:10.37,2013-05-03 13:18:00,
2013-05-03 05:23:00,63.7,61.3,29.41,NNE,22,0.0,0.0,92,0.00,CLR,SCT,0.00,WeatherDisplay:10.37,2013-05-03 13:23:00,
2013-05-03 05:28:00,63.1,60.8,29.41,NNE,22,0.0,0.0,92,0.04,RA,SCT,0.04,WeatherDisplay:10.37,2013-05-03 13:28:00,
2013-05-03 05:33:00,63.5,61.1,29.41,North,0,3.5,3.5,92,0.04,RA,SCT,0.04,WeatherDisplay:10.37,2013-05-03 13:33:00,
2013-05-03 05:38:00,63.9,61.5,29.41,North,0,4.6,4.6,92,0.04,,SCT,0.04,WeatherDisplay:10.37,2013-05-03 13:38:00,
2013-05-03 05:43:00,64.0,61.7,29.41,North,0,4.0,4.0,92,0.04,CLR,SCT,0.04,WeatherDisplay:10.37,2013-05-03 13:43:00,
2013-05-03 05:48:00,64.4,61.7,29.41,NNW,338,3.6,3.6,91,0.04,CLR,SCT,0.04,WeatherDisplay:10.37,2013-05-03 13:48:00,
2013-05-03 05:53:00,64.6,61.9,29.44,NNW,338,3.5,0.0,91,0.04,CLR,SCT,0.04,WeatherDisplay:10.37,2013-05-03 13:53:00,
2013-05-03 05:58:00,64.9,62.2,29.44,NNW,338,3.5,0.0,91,0.04,CLR,SCT,0.04,WeatherDisplay:10.37,2013-05-03 13:58:00,
2013-05-03 06:03:00,65.1,62.4,29.44,NNW,338,0.0,0.0,91,0.04,CLR,SCT,0.04,WeatherDisplay:10.37,2013-05-03 14:03:00,
2013-05-03 06:08:00,65.3,62.6,29.44,NNW,338,0.0,0.0,91,0.04,CLR,SCT,0.04,WeatherDisplay:10.37,2013-05-03 14:08:00,
2013-05-03 06:13:00,65.5,62.8,29.44,NNW,338,0.0,0.0,91,0.04,CLR,SCT,0.04,WeatherDisplay:10.37,2013-05-03 14:13:00,
2013-05-03 06:18:00,65.7,63.0,29.44,NNW,338,0.0,0.0,91,0.04,CLR,SCT,0.04,WeatherDisplay:10.37,2013-05-03 14:18:00,
2013-05-03 06:23:00,65.7,63.3,29.41,NNW,338,0.0,0.0,92,0.04,CLR,SCT,0.04,WeatherDisplay:10.37,2013-05-03 14:23:00,
2013-05-03 06:28:00,65.8,63.5,29.41,NNW,338,0.0,0.0,92,0.00,CLR,SCT,0.04,WeatherDisplay:10.37,2013-05-03 14:28:00,
2013-05-03 06:33:00,66.0,63.6,29.41,NNW,338,0.0,0.0,92,0.00,CLR,SCT,0.04,WeatherDisplay:10.37,2013-05-03 14:33:00,
2013-05-03 06:38:00,66.0,63.6,29.41,NNW,338,0.0,0.0,92,0.00,CLR,SCT,0.04,WeatherDisplay:10.37,2013-05-03 14:38:00,
2013-05-03 06:43:00,66.2,63.5,29.41,NNW,338,0.0,0.0,91,0.00,CLR,SCT,0.04,WeatherDisplay:10.37,2013-05-03 14:43:00,
2013-05-03 06:48:00,66.4,63.7,29.44,NNW,338,0.0,0.0,91,0.00,CLR,SCT,0.04,WeatherDisplay:10.37,2013-05-03 14:48:00,
2013-05-03 06:53:00,66.6,63.9,29.44,NNW,338,0.0,0.0,91,0.00,CLR,SCT,0.08,WeatherDisplay:10.37,2013-05-03 14:53:00,
2013-05-03 06:58:00,66.7,64.0,29.44,NNW,338,0.0,0.0,91,0.04,RA,SCT,0.08,WeatherDisplay:10.37,2013-05-03 14:58:00,
2013-05-03 07:03:00,66.9,64.2,29.44,NNW,338,0.0,0.0,91,0.04,RA,SCT,0.08,WeatherDisplay:10.37,2013-05-03 15:03:00,
2013-05-03 07:08:00,67.3,64.6,29.44,NNW,338,0.0,0.0,91,0.04,CLR,SCT,0.08,WeatherDisplay:10.37,2013-05-03 15:08:00,
2013-05-03 07:13:00,67.5,64.7,29.44,NNW,338,0.0,0.0,91,0.04,CLR,SCT,0.08,WeatherDisplay:10.37,2013-05-03 15:13:00,
2013-05-03 07:18:00,67.8,65.1,29.44,NNW,338,0.0,0.0,91,0.04,CLR,SCT,0.08,WeatherDisplay:10.37,2013-05-03 15:18:00,
2013-05-03 07:23:00,67.8,65.1,29.44,NNW,338,0.0,0.0,91,0.04,CLR,SCT,0.08,WeatherDisplay:10.37,2013-05-03 15:23:00,
2013-05-03 07:29:00,68.2,65.5,29.44,NNW,338,0.0,0.0,91,0.04,CLR,SCT,0.12,WeatherDisplay:10.37,2013-05-03 15:29:00,
2013-05-03 07:34:00,68.2,65.5,29.44,NNW,338,0.0,0.0,91,0.08,RA,SCT,0.12,WeatherDisplay:10.37,2013-05-03 15:34:00,
2013-05-03 07:39:00,68.4,65.6,29.44,NNW,338,0.0,0.0,91,0.08,RA,SCT,0.12,WeatherDisplay:10.37,2013-05-03 15:39:00,
2013-05-03 07:44:00,68.5,65.8,29.44,NNW,338,0.0,0.0,91,0.08,CLR,SCT,0.12,WeatherDisplay:10.37,2013-05-03 15:44:00,
2013-05-03 07:49:00,68.5,65.8,29.44,NNW,338,0.0,0.0,91,0.08,CLR,SCT,0.12,WeatherDisplay:10.37,2013-05-03 15:49:00,
2013-05-03 07:54:00,68.7,66.0,29.44,NNW,338,0.0,0.0,91,0.04,CLR,SCT,0.12,WeatherDisplay:10.37,2013-05-03 15:54:00,
2013-05-03 07:59:00,68.9,66.2,29.44,NNW,338,0.0,0.0,91,0.04,CLR,SCT,0.12,WeatherDisplay:10.37,2013-05-03 15:59:00,
2013-05-03 08:04:00,69.3,66.5,29.44,NNW,338,0.0,0.0,91,0.04,CLR,SCT,0.12,WeatherDisplay:10.37,2013-05-03 16:04:00,
2013-05-03 08:09:00,69.6,66.9,29.44,NNW,338,0.0,0.0,91,0.04,CLR,SCT,0.12,WeatherDisplay:10.37,2013-05-03 16:09:00,
2013-05-03 08:14:00,69.8,67.1,29.44,NNW,338,0.0,0.0,91,0.04,CLR,SCT,0.12,WeatherDisplay:10.37,2013-05-03 16:14:00,
2013-05-03 08:19:00,70.2,67.4,29.44,NNW,338,0.0,0.0,91,0.04,CLR,SCT,0.12,WeatherDisplay:10.37,2013-05-03 16:19:00,
2013-05-03 08:25:00,70.3,67.6,29.44,NNW,338,0.0,0.0,91,0.08,RA,SCT,0.16,WeatherDisplay:10.37,2013-05-03 16:25:00,
2013-05-03 08:30:00,70.3,67.6,29.44,NNW,338,0.0,0.0,91,0.08,RA,SCT,0.16,WeatherDisplay:10.37,2013-05-03 16:30:00,
2013-05-03 08:35:00,70.5,67.8,29.44,NNW,338,0.0,0.0,91,0.04,,SCT,0.16,WeatherDisplay:10.37,2013-05-03 16:35:00,
2013-05-03 08:40:00,70.7,67.9,29.44,NNW,338,0.0,0.0,91,0.04,CLR,SCT,0.16,WeatherDisplay:10.37,2013-05-03 16:40:00,
2013-05-03 08:45:00,71.1,68.3,29.44,NNW,338,0.0,0.0,91,0.04,CLR,SCT,0.16,WeatherDisplay:10.37,2013-05-03 16:45:00,
2013-05-03 08:50:00,71.2,68.5,29.47,NNW,338,0.0,0.0,91,0.04,CLR,SCT,0.16,WeatherDisplay:10.37,2013-05-03 16:50:00,
2013-05-03 08:55:00,71.2,68.5,29.47,NNW,338,0.0,0.0,91,0.04,CLR,SCT,0.16,WeatherDisplay:10.37,2013-05-03 16:55:00,
2013-05-03 09:00:00,71.4,68.7,29.47,NNW,338,0.0,0.0,91,0.04,CLR,SCT,0.16,WeatherDisplay:10.37,2013-05-03 17:00:00,
2013-05-03 09:05:00,71.8,68.7,29.44,NNW,338,0.0,0.0,90,0.04,CLR,SCT,0.16,WeatherDisplay:10.37,2013-05-03 17:05:00,
2013-05-03 09:10:00,72.1,69.0,29.44,NNW,338,0.0,0.0,90,0.04,CLR,SCT,0.16,WeatherDisplay:10.37,2013-05-03 17:10:00,
2013-05-03 09:15:00,72.3,69.2,29.44,NNW,338,0.0,0.0,90,0.04,CLR,SCT,0.16,WeatherDisplay:10.37,2013-05-03 17:15:00,
2013-05-03 09:20:00,72.1,69.0,29.44,NNW,338,0.0,0.0,90,0.04,CLR,SCT,0.16,WeatherDisplay:10.37,2013-05-03 17:20:00,
2013-05-03 09:25:00,72.1,69.0,29.44,NNW,338,2.3,0.0,90,0.00,CLR,SCT,0.16,WeatherDisplay:10.37,2013-05-03 17:25:00,
2013-05-03 09:30:00,72.0,68.9,29.44,NNW,338,2.3,0.0,90,0.04,RA,SCT,0.20,WeatherDisplay:10.37,2013-05-03 17:30:00,
2013-05-03 09:35:00,71.8,68.7,29.44,North,0,0.0,0.0,90,0.04,RA,SCT,0.20,WeatherDisplay:10.37,2013-05-03 17:35:00,
2013-05-03 09:40:00,72.0,68.9,29.44,North,0,0.0,0.0,90,0.04,CLR,SCT,0.20,WeatherDisplay:10.37,2013-05-03 17:40:00,
2013-05-03 09:45:00,72.0,68.9,29.44,North,0,0.0,0.0,90,0.04,CLR,SCT,0.20,WeatherDisplay:10.37,2013-05-03 17:45:00,
2013-05-03 09:50:00,72.0,68.9,29.47,North,0,0.0,0.0,90,0.04,CLR,SCT,0.20,WeatherDisplay:10.37,2013-05-03 17:50:00,
2013-05-03 09:55:00,72.0,68.9,29.47,North,0,0.0,0.0,90,0.04,CLR,SCT,0.20,WeatherDisplay:10.37,2013-05-03 17:55:00,
2013-05-03 10:00:00,72.0,68.9,29.47,North,0,0.0,0.0,90,0.04,CLR,SCT,0.20,WeatherDisplay:10.37,2013-05-03 18:00:00,
2013-05-03 10:05:00,72.0,68.9,29.47,North,0,0.0,0.0,90,0.04,CLR,SCT,0.20,WeatherDisplay:10.37,2013-05-03 18:05:00,
2013-05-03 10:10:00,72.1,69.0,29.47,North,0,0.0,0.0,90,0.04,CLR,SCT,0.20,WeatherDisplay:10.37,2013-05-03 18:10:00,
2013-05-03 10:15:00,72.3,69.2,29.47,North,0,0.0,0.0,90,0.04,CLR,SCT,0.20,WeatherDisplay:10.37,2013-05-03 18:15:00,
2013-05-03 10:20:00,72.5,69.4,29.47,North,0,0.0,0.0,90,0.04,CLR,SCT,0.20,WeatherDisplay:10.37,2013-05-03 18:20:00,
2013-05-03 10:25:00,72.7,69.6,29.47,NNE,22,2.6,0.0,90,0.04,CLR,SCT,0.20,WeatherDisplay:10.37,2013-05-03 18:25:00,
2013-05-03 10:30:00,72.1,69.0,29.47,NNE,22,0.0,0.0,90,0.04,RA,SCT,0.24,WeatherDisplay:10.37,2013-05-03 18:30:00,
2013-05-03 10:35:00,72.0,68.9,29.47,NNE,22,0.0,0.0,90,0.04,RA,SCT,0.24,WeatherDisplay:10.37,2013-05-03 18:35:00,
2013-05-03 10:40:00,71.8,68.7,29.47,NNE,22,0.0,0.0,90,0.04,CLR,SCT,0.24,WeatherDisplay:10.37,2013-05-03 18:40:00,
2013-05-03 10:45:00,71.6,68.5,29.47,NE,45,0.0,0.0,90,0.04,CLR,SCT,0.24,WeatherDisplay:10.37,2013-05-03 18:45:00,
2013-05-03 10:50:00,71.2,68.2,29.47,NE,45,0.0,0.0,90,0.04,CLR,SCT,0.24,WeatherDisplay:10.37,2013-05-03 18:50:00,
2013-05-03 10:55:00,71.1,68.0,29.47,NE,45,0.0,0.0,90,0.04,CLR,SCT,0.24,WeatherDisplay:10.37,2013-05-03 18:55:00,
2013-05-03 11:00:00,70.5,67.4,29.47,NE,45,0.0,0.0,90,0.04,CLR,SCT,0.24,WeatherDisplay:10.37,2013-05-03 19:00:00,
2013-05-03 11:05:00,70.5,67.4,29.47,NE,45,0.0,0.0,90,0.04,CLR,SCT,0.24,WeatherDisplay:10.37,2013-05-03 19:05:00,
2013-05-03 11:10:00,69.8,66.7,29.47,NE,45,0.0,0.0,90,0.04,CLR,SCT,0.24,WeatherDisplay:10.37,2013-05-03 19:10:00,
2013-05-03 11:15:00,69.8,66.7,29.47,NE,45,0.0,0.0,90,0.04,CLR,SCT,0.24,WeatherDisplay:10.37,2013-05-03 19:15:00,
2013-05-03 11:20:00,68.0,65.3,29.47,NNE,22,0.0,0.0,91,0.08,RA,SCT,0.28,WeatherDisplay:10.37,2013-05-03 19:20:00,
2013-05-03 11:25:00,67.5,64.7,29.47,North,0,2.6,0.0,91,0.08,RA,SCT,0.28,WeatherDisplay:10.37,2013-05-03 19:25:00,
2013-05-03 11:30:00,66.2,63.5,29.47,NW,315,0.0,0.0,91,0.04,CLR,SCT,0.28,WeatherDisplay:10.37,2013-05-03 19:30:00,
2013-05-03 11:35:00,65.5,62.8,29.50,NW,315,0.0,0.0,91,0.04,CLR,SCT,0.28,WeatherDisplay:10.37,2013-05-03 19:35:00,
2013-05-03 11:40:00,64.6,61.9,29.50,NW,315,0.0,0.0,91,0.04,CLR,SCT,0.28,WeatherDisplay:10.37,2013-05-03 19:40:00,
2013-05-03 11:45:00,62.4,60.1,29.50,SSW,202,2.3,0.0,92,0.04,CLR,SCT,0.28,WeatherDisplay:10.37,2013-05-03 19:45:00,
2013-05-03 11:50:00,60.6,58.3,29.50,SSW,202,4.6,0.0,92,0.04,CLR,SCT,0.28,WeatherDisplay:10.37,2013-05-03 19:50:00,
2013-05-03 11:55:00,60.6,58.3,29.50,SSW,202,0.0,0.0,92,0.04,CLR,SCT,0.28,WeatherDisplay:10.37,2013-05-03 19:55:00,
2013-05-03 12:00:00,60.3,57.9,29.50,SSW,202,0.0,0.0,92,0.04,CLR,SCT,0.28,WeatherDisplay:10.37,2013-05-03 20:00:00,
2013-05-03 12:05:00,58.8,56.8,29.50,SSW,202,0.0,0.0,93,0.04,CLR,SCT,0.28,WeatherDisplay:10.37,2013-05-03 20:05:00,
2013-05-03 12:10:00,56.8,54.8,29.50,SSW,202,2.2,0.0,93,0.04,CLR,SCT,0.28,WeatherDisplay:10.37,2013-05-03 20:10:00,
2013-05-03 12:15:00,54.9,53.2,29.50,SSW,202,3.5,0.0,94,0.04,CLR,SCT,0.28,WeatherDisplay:10.37,2013-05-03 20:15:00,
2013-05-03 12:20:00,54.5,52.8,29.50,SSW,202,0.0,0.0,94,0.00,CLR,SCT,0.28,WeatherDisplay:10.37,2013-05-03 20:20:00,
2013-05-03 12:25:00,54.5,52.8,29.50,SSW,202,2.3,0.0,94,0.00,CLR,SCT,0.28,WeatherDisplay:10.37,2013-05-03 20:25:00,
2013-05-03 12:30:00,54.1,52.5,29.50,SSW,202,4.6,4.6,94,0.00,CLR,SCT,0.28,WeatherDisplay:10.37,2013-05-03 20:30:00,
2013-05-03 12:35:00,53.6,51.9,29.50,SW,225,0.0,0.0,94,0.00,CLR,SCT,0.28,WeatherDisplay:10.37,2013-05-03 20:35:00,
2013-05-03 12:40:00,52.9,51.2,29.50,SSE,158,4.6,4.6,94,0.00,CLR,SCT,0.28,WeatherDisplay:10.37,2013-05-03 20:40:00,
2013-05-03 12:45:00,52.5,50.8,29.50,North,0,3.5,0.0,94,0.00,CLR,SCT,0.28,WeatherDisplay:10.37,2013-05-03 20:45:00,
2013-05-03 12:50:00,52.5,50.8,29.50,North,0,0.0,0.0,94,0.00,CLR,SCT,0.28,WeatherDisplay:10.37,2013-05-03 20:50:00,
2013-05-03 12:55:00,51.8,50.1,29.50,North,0,0.0,0.0,94,0.00,CLR,SCT,0.28,WeatherDisplay:10.37,2013-05-03 20:55:00,
2013-05-03 13:00:00,50.7,49.3,29.50,WSW,248,4.6,4.6,95,0.00,CLR,SCT,0.28,WeatherDisplay:10.37,2013-05-03 21:00:00,
2013-05-03 13:05:00,50.9,49.5,29.50,WSW,248,0.0,0.0,95,0.00,CLR,SCT,0.28,WeatherDisplay:10.37,2013-05-03 21:05:00,
2013-05-03 13:10:00,50.9,49.5,29.50,WSW,248,3.1,0.0,95,0.00,CLR,SCT,0.28,WeatherDisplay:10.37,2013-05-03 21:10:00,
2013-05-03 13:15:00,50.0,48.6,29.50,WSW,248,3.5,0.0,95,0.00,CLR,SCT,0.28,WeatherDisplay:10.37,2013-05-03 21:15:00,
2013-05-03 13:20:00,50.2,48.8,29.50,North,0,0.0,0.0,95,0.00,CLR,SCT,0.28,WeatherDisplay:10.37,2013-05-03 21:20:00,
2013-05-03 13:25:00,50.0,48.6,29.50,NNE,22,0.0,0.0,95,0.00,CLR,SCT,0.28,WeatherDisplay:10.37,2013-05-03 21:25:00,
2013-05-03 13:30:00,50.2,48.8,29.50,NNE,22,0.0,0.0,95,0.00,CLR,SCT,0.28,WeatherDisplay:10.37,2013-05-03 21:30:00,
2013-05-03 13:35:00,49.5,48.4,29.50,NE,45,3.1,0.0,96,0.00,CLR,SCT,0.28,WeatherDisplay:10.37,2013-05-03 21:35:00,
2013-05-03 13:40:00,48.7,47.7,29.50,East,90,3.5,3.5,96,0.00,CLR,SCT,0.28,WeatherDisplay:10.37,2013-05-03 21:40:00,
2013-05-03 13:45:00,48.9,47.8,29.50,WNW,292,0.0,0.0,96,0.00,CLR,SCT,0.28,WeatherDisplay:10.37,2013-05-03 21:45:00,
2013-05-03 13:50:00,48.7,47.7,29.50,SSE,158,2.6,2.6,96,0.00,CLR,SCT,0.28,WeatherDisplay:10.37,2013-05-03 21:50:00,
2013-05-03 13:57:00,48.6,47.5,29.50,NNW,338,0.0,0.0,96,0.00,CLR,SCT,0.28,WeatherDisplay:10.37,2013-05-03 21:57:00,
2013-05-03 14:02:00,48.4,47.3,29.50,NNW,338,0.0,0.0,96,0.00,CLR,SCT,0.28,WeatherDisplay:10.37,2013-05-03 22:02:00,
2013-05-03 14:07:00,48.6,47.5,29.53,NNW,338,2.2,0.0,96,0.00,CLR,SCT,0.28,WeatherDisplay:10.37,2013-05-03 22:07:00,
2013-05-03 14:12:00,48.4,47.3,29.53,NW,315,0.0,0.0,96,0.04,RA,SCT,0.31,WeatherDisplay:10.37,2013-05-03 22:12:00,
2013-05-03 14:17:00,48.6,47.5,29.53,NW,315,4.6,0.0,96,0.04,RA,SCT,0.31,WeatherDisplay:10.37,2013-05-03 22:17:00,
2013-05-03 14:22:00,48.0,46.9,29.50,NW,315,3.6,3.6,96,0.04,CLR,SCT,0.31,WeatherDisplay:10.37,2013-05-03 22:22:00,
2013-05-03 14:27:00,47.8,46.8,29.50,NNW,338,0.0,0.0,96,0.04,CLR,SCT,0.31,WeatherDisplay:10.37,2013-05-03 22:27:00,
2013-05-03 14:32:00,48.2,47.1,29.50,NNW,338,0.0,0.0,96,0.04,CLR,SCT,0.31,WeatherDisplay:10.37,2013-05-03 22:32:00,
2013-05-03 14:37:00,48.4,47.3,29.53,NNW,338,0.0,0.0,96,0.04,CLR,SCT,0.31,WeatherDisplay:10.37,2013-05-03 22:37:00,
2013-05-03 14:42:00,48.7,47.7,29.53,NNW,338,0.0,0.0,96,0.04,CLR,SCT,0.31,WeatherDisplay:10.37,2013-05-03 22:42:00,
2013-05-03 14:47:00,48.6,47.5,29.53,NNW,338,2.3,0.0,96,0.04,CLR,SCT,0.31,WeatherDisplay:10.37,2013-05-03 22:47:00,
2013-05-03 14:52:00,48.6,47.5,29.53,NW,315,0.0,0.0,96,0.04,CLR,SCT,0.31,WeatherDisplay:10.37,2013-05-03 22:52:00,
2013-05-03 14:57:00,48.7,47.7,29.53,NW,315,0.0,0.0,96,0.04,CLR,SCT,0.31,WeatherDisplay:10.37,2013-05-03 22:57:00,
2013-05-03 15:02:00,47.7,46.6,29.53,SSW,202,3.5,3.5,96,0.04,CLR,SCT,0.31,WeatherDisplay:10.37,2013-05-03 23:02:00,
2013-05-03 15:07:00,48.2,47.1,29.50,SSW,202,0.0,0.0,96,0.04,CLR,SCT,0.31,WeatherDisplay:10.37,2013-05-03 23:07:00,
2013-05-03 15:12:00,47.5,46.4,29.50,SSE,158,0.0,0.0,96,0.00,CLR,SCT,0.31,WeatherDisplay:10.37,2013-05-03 23:12:00,
2013-05-03 15:17:00,46.6,45.5,29.50,SSE,158,0.0,0.0,96,0.00,CLR,SCT,0.31,WeatherDisplay:10.37,2013-05-03 23:17:00,
2013-05-03 15:23:00,46.8,45.7,29.50,SSW,202,3.5,0.0,96,0.00,CLR,SCT,0.31,WeatherDisplay:10.37,2013-05-03 23:23:00,
2013-05-03 15:28:00,46.2,45.1,29.50,South,180,4.0,4.0,96,0.00,CLR,SCT,0.31,WeatherDisplay:10.37,2013-05-03 23:28:00,
2013-05-03 15:33:00,45.7,44.6,29.50,South,180,2.3,0.0,96,0.00,CLR,SCT,0.31,WeatherDisplay:10.37,2013-05-03 23:33:00,
2013-05-03 15:38:00,45.7,44.6,29.50,South,180,0.0,0.0,96,0.00,CLR,SCT,0.31,WeatherDisplay:10.37,2013-05-03 23:38:00,
2013-05-03 15:43:00,45.5,44.4,29.50,South,180,0.0,0.0,96,0.00,CLR,SCT,0.31,WeatherDisplay:10.37,2013-05-03 23:43:00,
2013-05-03 15:48:00,45.1,44.1,29.50,South,180,0.0,0.0,96,0.00,CLR,SCT,0.31,WeatherDisplay:10.37,2013-05-03 23:48:00,
2013-05-03 15:53:00,46.4,45.0,29.50,South,180,0.0,0.0,95,0.00,CLR,SCT,0.31,WeatherDisplay:10.37,2013-05-03 23:53:00,
2013-05-03 15:58:00,45.3,44.2,29.50,South,180,3.5,0.0,96,0.00,CLR,SCT,0.31,WeatherDisplay:10.37,2013-05-03 23:58:00,
2013-05-03 16:03:00,44.4,43.4,29.50,South,180,2.6,2.6,96,0.00,CLR,SCT,0.31,WeatherDisplay:10.37,2013-05-04 00:03:00,
2013-05-03 16:08:00,43.9,42.8,29.53,South,180,4.6,0.0,96,0.00,CLR,SCT,0.31,WeatherDisplay:10.37,2013-05-04 00:08:00,
2013-05-03 16:13:00,42.8,41.5,29.53,South,180,3.6,3.6,95,0.00,CLR,SCT,0.31,WeatherDisplay:10.37,2013-05-04 00:13:00,
2013-05-03 16:18:00,42.1,40.5,29.53,WSW,248,4.6,4.6,94,0.00,CLR,SCT,0.31,WeatherDisplay:10.37,2013-05-04 00:18:00,
2013-05-03 16:23:00,42.3,40.7,29.53,SW,225,3.5,0.0,94,0.00,CLR,SCT,0.31,WeatherDisplay:10.37,2013-05-04 00:23:00,
2013-05-03 16:28:00,42.4,40.6,29.53,SSW,202,2.6,0.0,93,0.00,CLR,SCT,0.31,WeatherDisplay:10.37,2013-05-04 00:28:00,
2013-05-03 16:33:00,43.3,41.2,29.53,SSW,202,3.5,0.0,92,0.00,CLR,SCT,0.31,WeatherDisplay:10.37,2013-05-04 00:33:00,
2013-05-03 16:38:00,42.4,40.0,29.50,SSW,202,3.5,0.0,91,0.00,CLR,SCT,0.31,WeatherDisplay:10.37,2013-05-04 00:38:00,
2013-05-03 16:43:00,42.1,39.4,29.50,SSW,202,3.5,0.0,90,0.00,CLR,SCT,0.31,WeatherDisplay:10.37,2013-05-04 00:43:00,
2013-05-03 16:48:00,41.7,38.4,29.50,SSW,202,4.6,4.6,88,0.00,CLR,SCT,0.31,WeatherDisplay:10.37,2013-05-04 00:48:00,
2013-05-03 16:53:00,42.4,38.8,29.50,SSW,202,0.0,0.0,87,0.00,CLR,SCT,0.31,WeatherDisplay:10.37,2013-05-04 00:53:00,
2013-05-03 16:58:00,42.3,38.7,29.50,SSW,202,3.5,0.0,87,0.00,CLR,SCT,0.31,WeatherDisplay:10.37,2013-05-04 00:58:00,
2013-05-03 17:03:00,41.5,37.7,29.50,South,180,4.6,4.6,86,0.00,CLR,SCT,0.31,WeatherDisplay:10.37,2013-05-04 01:03:00,
2013-05-03 17:08:00,42.1,37.9,29.50,South,180,2.3,0.0,85,0.00,CLR,SCT,0.31,WeatherDisplay:10.37,2013-05-04 01:08:00,
2013-05-03 17:13:00,41.4,36.6,29.50,South,180,3.5,3.6,83,0.00,CLR,SCT,0.31,WeatherDisplay:10.37,2013-05-04 01:13:00,
2013-05-03 17:18:00,41.5,36.5,29.50,South,180,2.6,0.0,82,0.00,CLR,SCT,0.31,WeatherDisplay:10.37,2013-05-04 01:18:00,
2013-05-03 17:23:00,41.9,36.5,29.50,SSW,202,0.0,0.0,81,0.00,CLR,SCT,0.31,WeatherDisplay:10.37,2013-05-04 01:23:00,
2013-05-03 17:28:00,41.0,34.3,29.50,ESE,112,5.8,5.8,77,0.00,CLR,SCT,0.31,WeatherDisplay:10.37,2013-05-04 01:28:00,
2013-05-03 17:33:00,41.0,34.0,29.50,SE,135,5.4,5.4,76,0.00,CLR,SCT,0.31,WeatherDisplay:10.37,2013-05-04 01:33:00,
2013-05-03 17:38:00,40.8,33.5,29.50,SSW,202,5.8,5.8,75,0.00,CLR,SCT,0.31,WeatherDisplay:10.37,2013-05-04 01:38:00,
2013-05-03 17:43:00,40.6,32.3,29.50,South,180,4.6,4.6,72,0.00,CLR,SCT,0.31,WeatherDisplay:10.37,2013-05-04 01:43:00,
2013-05-03 17:48:00,40.6,32.3,29.50,SSE,158,3.5,3.5,72,0.00,CLR,SCT,0.31,WeatherDisplay:10.37,2013-05-04 01:48:00,
2013-05-03 17:53:00,41.2,33.2,29.50,SW,225,3.5,0.0,73,0.00,CLR,SCT,0.31,WeatherDisplay:10.37,2013-05-04 01:53:00,
2013-05-03 17:58:00,41.2,32.5,29.50,SSW,202,3.6,3.6,71,0.00,CLR,SCT,0.31,WeatherDisplay:10.37,2013-05-04 01:58:00,
2013-05-03 18:03:00,41.0,31.6,29.50,SSW,202,3.5,3.5,69,0.00,CLR,SCT,0.31,WeatherDisplay:10.37,2013-05-04 02:03:00,
2013-05-03 18:08:00,41.2,32.1,29.50,SSW,202,3.5,3.5,70,0.00,CLR,SCT,0.31,WeatherDisplay:10.37,2013-05-04 02:08:00,
2013-05-03 18:13:00,41.2,32.1,29.50,South,180,5.8,5.8,70,0.00,CLR,SCT,0.31,WeatherDisplay:10.37,2013-05-04 02:13:00,
2013-05-03 18:18:00,41.4,32.3,29.50,South,180,0.0,0.0,70,0.00,CLR,SCT,0.31,WeatherDisplay:10.37,2013-05-04 02:18:00,
2013-05-03 18:23:00,41.7,33.4,29.50,South,180,2.2,0.0,72,0.00,CLR,SCT,0.31,WeatherDisplay:10.37,2013-05-04 02:23:00,
2013-05-03 18:28:00,41.7,33.0,29.50,South,180,2.6,0.0,71,0.00,CLR,SCT,0.31,WeatherDisplay:10.37,2013-05-04 02:28:00,
2013-05-03 18:33:00,42.1,34.4,29.50,SE,135,2.3,0.0,74,0.00,CLR,SCT,0.31,WeatherDisplay:10.37,2013-05-04 02:33:00,
2013-05-03 18:38:00,42.1,35.4,29.50,SE,135,3.5,3.5,77,0.00,CLR,SCT,0.31,WeatherDisplay:10.37,2013-05-04 02:38:00,
2013-05-03 18:43:00,42.4,36.1,29.50,SSE,158,2.6,0.0,78,0.00,CLR,SCT,0.31,WeatherDisplay:10.37,2013-05-04 02:43:00,
2013-05-03 18:48:00,42.6,36.9,29.50,SE,135,0.0,0.0,80,0.00,CLR,SCT,0.31,WeatherDisplay:10.37,2013-05-04 02:48:00,
2013-05-03 18:53:00,42.1,35.7,29.50,SE,135,3.5,0.0,78,0.00,CLR,SCT,0.31,WeatherDisplay:10.37,2013-05-04 02:53:00,
2013-05-03 19:01:00,41.9,33.9,29.50,SE,135,0.0,0.0,73,0.00,CLR,SCT,0.31,WeatherDisplay:10.37,2013-05-04 03:01:00,
2013-05-03 19:06:00,41.7,32.7,29.50,SE,135,2.3,0.0,70,0.00,CLR,SCT,0.31,WeatherDisplay:10.37,2013-05-04 03:06:00,
2013-05-03 19:11:00,41.7,31.2,29.50,SSE,158,2.3,0.0,66,0.00,CLR,SCT,0.31,WeatherDisplay:10.37,2013-05-04 03:11:00,
2013-05-03 19:16:00,41.9,31.0,29.50,SSE,158,0.0,0.0,65,0.00,CLR,SCT,0.31,WeatherDisplay:10.37,2013-05-04 03:16:00,
2013-05-03 19:21:00,42.3,32.1,29.53,SSE,158,0.0,0.0,67,0.00,CLR,SCT,0.31,WeatherDisplay:10.37,2013-05-04 03:21:00,
2013-05-03 19:26:00,42.3,31.3,29.53,SSE,158,2.3,0.0,65,0.00,CLR,SCT,0.31,WeatherDisplay:10.37,2013-05-04 03:26:00,
2013-05-03 19:31:00,42.3,30.2,29.53,SSE,158,2.3,0.0,62,0.00,CLR,SCT,0.31,WeatherDisplay:10.37,2013-05-04 03:31:00,
2013-05-03 19:36:00,42.3,29.8,29.50,SSE,158,2.6,2.6,61,0.00,CLR,SCT,0.31,WeatherDisplay:10.37,2013-05-04 03:36:00,
2013-05-03 19:41:00,42.1,29.2,29.50,NW,315,4.6,4.6,60,0.00,CLR,SCT,0.31,WeatherDisplay:10.37,2013-05-04 03:41:00,
2013-05-03 19:46:00,41.7,28.4,29.50,NW,315,5.8,5.8,59,0.00,CLR,SCT,0.31,WeatherDisplay:10.37,2013-05-04 03:46:00,
2013-05-03 19:51:00,41.5,27.8,29.50,NNW,338,4.9,4.9,58,0.00,CLR,SCT,0.31,WeatherDisplay:10.37,2013-05-04 03:51:00,
2013-05-03 19:56:00,41.4,26.8,29.50,NW,315,4.6,4.6,56,0.00,CLR,SCT,0.31,WeatherDisplay:10.37,2013-05-04 03:56:00,
2013-05-03 20:01:00,41.5,27.0,29.50,NW,315,3.5,0.0,56,0.00,CLR,SCT,0.31,WeatherDisplay:10.37,2013-05-04 04:01:00,
2013-05-03 20:06:00,41.4,26.4,29.53,NNW,338,3.6,0.0,55,0.00,CLR,SCT,0.31,WeatherDisplay:10.37,2013-05-04 04:06:00,
2013-05-03 20:11:00,41.2,26.2,29.53,SW,225,5.9,5.9,55,0.00,CLR,SCT,0.31,WeatherDisplay:10.37,2013-05-04 04:11:00,
2013-05-03 20:16:00,40.8,25.9,29.53,WSW,248,2.3,0.0,55,0.00,CLR,SCT,0.31,WeatherDisplay:10.37,2013-05-04 04:16:00,
2013-05-03 20:21:00,40.8,25.4,29.50,NW,315,4.6,4.6,54,0.00,CLR,SCT,0.31,WeatherDisplay:10.37,2013-05-04 04:21:00,
2013-05-03 20:26:00,40.3,24.9,29.50,NW,315,3.5,3.5,54,0.00,CLR,SCT,0.31,WeatherDisplay:10.37,2013-05-04 04:26:00,
2013-05-03 20:31:00,40.1,25.2,29.50,NW,315,4.6,4.6,55,0.00,CLR,SCT,0.31,WeatherDisplay:10.37,2013-05-04 04:31:00,
2013-05-03 20:36:00,40.1,25.6,29.53,NW,315,4.6,0.0,56,0.00,CLR,SCT,0.31,WeatherDisplay:10.37,2013-05-04 04:36:00,
2013-05-03 20:41:00,40.1,26.1,29.53,NW,315,0.0,0.0,57,0.00,CLR,SCT,0.31,WeatherDisplay:10.37,2013-05-04 04:41:00,
2013-05-03 20:46:00,40.1,26.1,29.53,NW,315,0.0,0.0,57,0.00,CLR,SCT,0.31,WeatherDisplay:10.37,2013-05-04 04:46:00,
2013-05-03 20:51:00,40.3,26.2,29.53,NW,315,2.3,0.0,57,0.00,CLR,SCT,0.31,WeatherDisplay:10.37,2013-05-04 04:51:00,
2013-05-03 20:56:00,40.3,25.8,29.53,NW,315,3.5,0.0,56,0.00,CLR,SCT,0.31,WeatherDisplay:10.37,2013-05-04 04:56:00,
2013-05-03 21:01:00,39.9,25.0,29.53,NW,315,3.6,3.6,55,0.00,CLR,SCT,0.31,WeatherDisplay:10.37,2013-05-04 05:01:00,
2013-05-03 21:06:00,39.7,24.9,29.53,WNW,292,0.0,0.0,55,0.00,CLR,SCT,0.31,WeatherDisplay:10.37,2013-05-04 05:06:00,
2013-05-03 21:11:00,39.6,24.7,29.53,WNW,292,3.6,3.6,55,0.00,CLR,SCT,0.31,WeatherDisplay:10.37,2013-05-04 05:11:00,
2013-05-03 21:16:00,39.4,24.1,29.53,WNW,292,0.0,0.0,54,0.00,CLR,SCT,0.31,WeatherDisplay:10.37,2013-05-04 05:16:00,
2013-05-03 21:21:00,39.4,24.1,29.53,West,270,0.0,0.0,54,0.00,CLR,SCT,0.31,WeatherDisplay:10.37,2013-05-04 05:21:00,
2013-05-03 21:26:00,39.2,23.5,29.53,WNW,292,4.6,4.6,53,0.00,CLR,SCT,0.31,WeatherDisplay:10.37,2013-05-04 05:26:00,
2013-05-03 21:31:00,39.0,23.3,29.53,WNW,292,2.2,0.0,53,0.00,CLR,SCT,0.31,WeatherDisplay:10.37,2013-05-04 05:31:00,
2013-05-03 21:36:00,38.8,23.2,29.53,West,270,2.6,0.0,53,0.00,CLR,SCT,0.31,WeatherDisplay:10.37,2013-05-04 05:36:00,
2013-05-03 21:41:00,38.8,22.7,29.53,West,270,0.0,0.0,52,0.00,CLR,SCT,0.31,WeatherDisplay:10.37,2013-05-04 05:41:00,
2013-05-03 21:46:00,38.8,22.2,29.53,West,270,0.0,0.0,51,0.00,CLR,SCT,0.31,WeatherDisplay:10.37,2013-05-04 05:46:00,
2013-05-03 21:51:00,38.7,22.1,29.53,West,270,0.0,0.0,51,0.00,CLR,SCT,0.31,WeatherDisplay:10.37,2013-05-04 05:51:00,
2013-05-03 21:56:00,38.7,22.1,29.53,West,270,3.5,0.0,51,0.00,CLR,SCT,0.31,WeatherDisplay:10.37,2013-05-04 05:56:00,
2013-05-03 22:01:00,38.7,22.1,29.53,West,270,0.0,0.0,51,0.00,CLR,SCT,0.31,WeatherDisplay:10.37,2013-05-04 06:01:00,
2013-05-03 22:06:00,38.5,21.9,29.53,West,270,0.0,0.0,51,0.00,CLR,SCT,0.31,WeatherDisplay:10.37,2013-05-04 06:06:00,
2013-05-03 22:11:00,38.5,21.9,29.53,West,270,0.0,0.0,51,0.00,CLR,SCT,0.31,WeatherDisplay:10.37,2013-05-04 06:11:00,
2013-05-03 22:16:00,38.1,21.6,29.53,West,270,0.0,0.0,51,0.00,CLR,SCT,0.31,WeatherDisplay:10.37,2013-05-04 06:16:00,
2013-05-03 22:21:00,38.1,21.6,29.50,West,270,0.0,0.0,51,0.00,CLR,SCT,0.31,WeatherDisplay:10.37,2013-05-04 06:21:00,
2013-05-03 22:26:00,37.9,21.4,29.50,West,270,0.0,0.0,51,0.00,CLR,SCT,0.31,WeatherDisplay:10.37,2013-05-04 06:26:00,
2013-05-03 22:31:00,37.9,21.4,29.50,West,270,0.0,0.0,51,0.00,CLR,SCT,0.31,WeatherDisplay:10.37,2013-05-04 06:31:00,
2013-05-03 22:36:00,37.9,21.4,29.53,West,270,0.0,0.0,51,0.00,CLR,SCT,0.31,WeatherDisplay:10.37,2013-05-04 06:36:00,
2013-05-03 22:41:00,37.8,21.2,29.53,West,270,0.0,0.0,51,0.00,CLR,SCT,0.31,WeatherDisplay:10.37,2013-05-04 06:41:00,
2013-05-03 22:46:00,37.8,21.2,29.53,West,270,0.0,0.0,51,0.00,CLR,SCT,0.31,WeatherDisplay:10.37,2013-05-04 06:46:00,
2013-05-03 22:51:00,37.2,22.5,29.53,WSW,248,3.5,0.0,55,0.00,CLR,SCT,0.31,WeatherDisplay:10.37,2013-05-04 06:51:00,
2013-05-03 22:56:00,37.0,22.4,29.53,WSW,248,0.0,0.0,55,0.00,CLR,SCT,0.31,WeatherDisplay:10.37,2013-05-04 06:56:00,
2013-05-03 23:01:00,37.0,22.4,29.53,WSW,248,0.0,0.0,55,0.00,CLR,SCT,0.31,WeatherDisplay:10.37,2013-05-04 07:01:00,
2013-05-03 23:06:00,36.9,23.0,29.53,WSW,248,0.0,0.0,57,0.00,CLR,SCT,0.31,WeatherDisplay:10.37,2013-05-04 07:06:00,
2013-05-03 23:11:00,36.5,23.9,29.53,WSW,248,3.5,3.5,60,0.00,CLR,SCT,0.31,WeatherDisplay:10.37,2013-05-04 07:11:00,
2013-05-03 23:16:00,36.3,24.1,29.53,South,180,3.5,3.5,61,0.00,CLR,SCT,0.31,WeatherDisplay:10.37,2013-05-04 07:16:00,
2013-05-03 23:21:00,36.1,25.5,29.53,South,180,3.6,3.6,65,0.00,CLR,SCT,0.31,WeatherDisplay:10.37,2013-05-04 07:21:00,
2013-05-03 23:26:00,36.7,26.7,29.53,SSE,158,4.6,4.6,67,0.00,CLR,SCT,0.31,WeatherDisplay:10.37,2013-05-04 07:26:00,
2013-05-03 23:31:00,36.7,27.8,29.53,SSE,158,3.5,3.5,70,0.00,CLR,SCT,0.31,WeatherDisplay:10.37,2013-05-04 07:31:00,
2013-05-03 23:36:00,36.9,28.7,29.53,SSE,158,4.6,4.6,72,0.00,CLR,SCT,0.31,WeatherDisplay:10.37,2013-05-04 07:36:00,
2013-05-03 23:41:00,36.7,28.8,29.53,SSE,158,4.6,4.6,73,0.00,CLR,SCT,0.31,WeatherDisplay:10.37,2013-05-04 07:41:00,
2013-05-03 23:46:00,36.7,29.2,29.53,SE,135,2.6,2.6,74,0.00,CLR,SCT,0.31,WeatherDisplay:10.37,2013-05-04 07:46:00,
2013-05-03 23:51:00,36.9,29.3,29.50,SE,135,4.6,4.6,74,0.00,CLR,SCT,0.31,WeatherDisplay:10.37,2013-05-04 07:51:00,
2013-05-03 23:56:00,36.9,29.0,29.50,SE,135,3.6,3.6,73,0.00,CLR,SCT,0.31,WeatherDisplay:10.37,2013-05-04 07:56:00,